Wind_Speed
32 32 32 30 29 30 30 28 30 29 28 28 25 22 21 20 19 19 21 22 26 24 24 20 20 20 23 25 26 25 23 20 25 32 30 33 32 32 30 27 26 30 30
30 31 30 32 30 32 33 32 32 33 32 29 28 27 25 23 21 20 20 20 22 24 25 25 22 18 23 22 28 27 24 24 29 31 34 35 34 33 32 30 31 36 30
40 40 35 35 34 35 36 36 36 36 36 34 31 29 28 26 24 22 21 21 21 21 22 24 26 25 23 22 26 25 25 26 26 34 37 40 39 37 34 35 34 31 35
44 43 42 37 37 37 36 38 38 38 38 37 36 35 33 31 30 28 26 24 24 24 25 25 25 24 26 24 24 29 25 25 28 30 37 39 43 42 39 37 37 36 34
45 45 42 41 38 39 38 37 38 39 42 42 39 39 36 35 34 33 32 31 29 29 27 27 27 27 27 28 26 26 28 30 30 30 35 39 39 45 46 47 44 42 40
41 43 44 43 41 38 42 41 41 41 41 42 41 41 39 38 39 37 36 37 36 34 31 30 29 31 30 29 29 29 30 29 32 34 35 40 40 42 44 46 47 46 48
34 38 45 49 48 45 41 46 48 45 45 43 43 41 41 39 41 41 40 38 36 36 36 35 35 33 34 34 33 33 32 34 33 35 38 39 44 43 43 47 47 45 47
41 42 40 45 53 53 53 53 52 49 48 46 47 47 46 46 45 46 45 44 41 40 40 39 37 36 37 38 38 37 37 35 37 37 37 41 41 45 43 46 48 49 45
40 41 44 43 46 47 54 59 59 57 54 52 50 50 51 52 50 50 49 49 48 46 44 43 43 43 42 41 41 42 41 41 40 40 41 40 41 45 48 48 47 46 45
39 40 42 42 44 47 48 51 54 56 57 58 59 58 57 55 55 56 56 56 56 56 56 51 50 47 48 48 48 47 46 47 47 46 44 44 43 42 47 50 50 52 50
38 40 42 45 47 47 48 52 56 59 59 60 62 62 63 64 64 65 65 65 64 63 60 57 55 54 54 52 51 52 50 48 51 52 50 48 48 47 44 48 51 52 54
41 42 44 45 47 48 50 52 53 54 56 59 63 64 65 65 66 67 69 70 70 70 68 66 64 61 62 60 57 56 56 55 53 54 56 55 54 52 51 49 47 52 54
46 48 51 53 55 56 57 59 60 60 60 61 64 65 67 68 69 68 68 68 69 72 73 73 73 72 68 65 64 63 61 60 58 58 59 57 58 59 58 54 55 52 52
44 48 51 54 56 60 62 65 67 69 71 72 75 74 73 73 73 74 74 75 76 74 72 71 72 70 69 69 68 69 67 66 65 64 64 64 63 63 62 63 61 58 57
22 24 29 34 40 47 52 54 59 65 69 71 73 77 81 84 84 84 82 80 80 81 82 82 80 77 76 75 72 70 69 70 70 71 70 69 70 69 68 67 67 65 64
29 31 34 36 37 37 38 36 39 44 52 61 70 75 76 77 80 83 84 87 90 90 89 89 87 87 86 85 82 79 76 74 75 75 74 76 75 75 75 73 73 72 70
34 37 40 42 44 46 47 50 50 48 50 49 50 54 62 71 81 83 84 83 84 86 89 91 92 93 94 92 91 89 85 82 80 80 79 79 78 77 77 78 78 78 76
38 41 45 48 51 53 53 54 55 56 57 58 58 61 63 64 69 76 83 87 88 90 91 90 89 90 89 89 90 91 92 91 89 89 87 86 84 82 81 79 79 80 82
45 49 50 53 55 57 60 61 63 63 62 65 65 65 67 70 71 71 73 79 85 86 87 90 93 93 93 91 89 87 88 89 90 90 89 90 88 86 84 82 81 80 80
53 57 58 60 62 64 65 66 68 69 69 70 71 69 70 74 76 76 76 76 79 81 87 88 87 88 90 93 95 92 92 88 87 89 89 88 87 87 84 81 82 80 81
63 65 69 73 75 73 73 75 74 73 73 74 74 76 78 77 78 80 80 81 81 82 83 84 86 87 87 88 87 91 95 94 92 90 90 90 90 89 88 84 84 81 80
70 73 76 77 83 84 82 80 81 81 79 79 80 81 83 84 83 82 83 85 85 86 88 88 85 86 86 88 86 86 87 89 94 96 93 90 91 93 91 91 88 86 82
73 76 80 88 95 88 86 87 86 85 84 85 85 86 87 88 89 88 89 88 90 91 92 93 93 87 85 89 87 87 86 87 89 89 95 95 93 92 94 97 95 92 89
79 84 93 98 98 92 88 89 91 91 90 90 90 92 93 94 93 95 95 94 93 93 95 95 96 93 92 90 91 90 86 87 87 88 90 92 96 95 95 96 98 98 95
88 93 94 103 93 90 94 90 90 93 93 91 94 96 96 98 100 100 100 100 98 98 98 99 99 100 99 95 98 96 95 92 91 90 89 90 91 95 96 95 97 100 100
94 95 95 103 94 90 89 91 89 92 94 96 98 100 101 103 105 105 105 105 106 104 103 105 106 104 104 105 105 107 103 100 98 95 93 93 92 90 95 97 95 97 100
Wind_Direction
231 234 238 235 234 232 232 236 237 238 241 243 247 237 239 235 233 238 244 245 246 247 248 241 232 233 227 235 238 238 234 232 221 214 215 219 218 221 225 220 219 224 228
236 236 236 234 232 232 235 238 242 243 240 244 247 237 234 233 234 234 239 242 245 250 246 248 240 236 234 237 238 239 235 230 222 215 211 218 223 225 225 218 220 224 221
234 235 232 237 235 233 232 237 241 247 246 245 242 242 241 233 233 233 237 242 247 249 250 250 247 247 239 234 228 234 236 230 224 220 217 216 222 226 224 223 226 224 228
229 233 230 233 236 233 236 243 242 246 249 249 249 249 249 245 240 239 240 242 245 247 250 248 246 242 240 238 232 230 232 231 230 225 221 220 222 223 226 227 230 233 232
230 233 236 230 238 241 239 244 251 253 250 250 252 252 252 255 254 249 248 248 249 249 249 249 249 246 237 237 233 229 231 235 236 231 226 227 227 227 225 227 232 233 236
232 233 235 237 236 237 239 246 248 246 247 245 248 250 254 257 259 261 262 257 256 254 250 251 251 248 245 238 236 234 231 232 233 233 229 229 229 232 233 229 233 235 236
230 235 235 236 239 241 240 243 245 250 250 247 245 247 251 253 256 260 261 263 262 259 256 253 253 254 251 245 239 236 239 231 230 234 234 231 233 235 233 236 233 238 239
234 241 241 237 237 238 240 243 247 249 250 253 251 250 252 254 256 258 262 263 264 264 262 258 257 254 256 252 247 242 236 237 237 236 236 236 233 235 237 238 237 238 239
241 243 245 245 242 244 245 246 249 249 250 252 254 254 253 254 256 257 257 258 258 259 258 259 261 262 262 259 258 250 244 237 238 239 239 236 238 238 236 238 240 240 238
251 252 251 251 249 250 250 251 253 256 258 260 261 260 258 257 258 258 259 259 262 263 261 258 257 259 260 260 261 261 254 245 240 240 239 240 240 240 241 240 240 241 243
253 255 257 258 260 259 258 258 257 256 258 260 263 263 264 263 262 261 262 262 262 263 262 259 257 258 255 256 257 255 255 255 250 245 243 242 243 244 243 241 241 242 243
259 258 257 258 258 259 260 260 260 262 262 263 263 263 264 265 265 266 265 265 265 266 265 264 262 261 261 259 254 252 251 251 254 254 250 247 246 245 246 246 246 243 245
269 268 267 266 266 266 264 263 262 263 263 265 264 263 263 263 263 262 262 262 263 264 265 265 264 262 261 259 255 254 252 252 252 252 252 253 254 251 248 247 247 246 245
271 270 270 270 270 269 269 268 267 267 266 267 266 265 264 264 264 264 263 264 263 260 259 260 262 263 262 259 256 254 254 253 251 251 251 251 252 252 252 250 247 248 247
293 289 287 283 281 276 272 273 273 271 269 267 268 268 267 266 263 262 262 262 261 260 261 261 260 260 260 260 258 255 253 254 255 254 252 252 252 251 251 251 250 247 247
285 284 288 285 283 282 282 284 283 280 277 274 272 268 267 266 266 265 265 265 264 264 264 262 261 261 261 260 258 257 256 255 254 253 254 255 253 253 251 250 250 250 249
296 294 292 290 288 284 282 278 277 278 277 276 276 276 275 274 269 266 265 264 264 265 265 265 264 263 261 260 259 257 256 256 256 255 254 255 255 254 251 252 250 250 251
297 297 296 293 291 288 284 282 284 283 278 277 277 277 279 278 274 269 266 265 264 264 264 264 264 263 262 261 259 258 258 256 255 255 256 256 256 257 255 252 251 251 250
303 303 302 300 298 294 288 285 284 284 283 284 282 281 280 279 278 277 272 268 265 263 263 264 264 262 261 260 260 258 256 255 254 253 254 254 255 254 254 252 250 249 250
307 306 303 300 297 296 292 288 284 282 281 282 282 281 283 280 278 276 274 271 268 266 265 263 262 262 262 262 260 258 257 255 253 252 250 251 252 252 252 247 248 249 249
311 308 306 304 300 295 292 289 284 282 283 281 281 280 281 279 278 276 275 273 270 266 265 266 264 260 261 260 260 259 257 255 254 251 251 248 247 248 249 248 244 245 248
311 308 307 306 302 295 290 287 284 281 280 279 279 279 278 276 274 273 272 272 270 267 264 263 262 263 259 260 257 257 257 256 254 252 251 249 248 247 246 248 245 242 242
308 307 305 306 305 297 290 286 282 279 279 279 279 279 278 276 272 271 271 270 268 267 264 262 262 260 260 259 257 256 252 254 254 251 251 250 247 247 246 246 246 245 241
304 306 308 306 302 294 290 290 282 278 277 276 277 279 279 275 274 270 268 267 266 266 264 260 258 258 258 257 256 254 253 252 250 252 251 250 249 248 246 246 246 245 245
311 310 312 312 303 294 289 285 283 278 274 272 274 275 276 274 272 271 269 267 266 263 260 259 257 257 256 255 254 255 257 253 251 249 250 249 247 248 247 245 245 246 244
314 316 313 318 309 290 287 283 279 276 273 273 273 273 274 273 272 271 269 266 264 263 259 256 254 254 254 254 254 254 255 255 252 249 246 247 247 245 245 245 245 244 244
Height
10825 10827 10829 10831 10832 10834 10835 10836 10837 10839 10841 10841 10842 10843 10845 10847 10847 10846 10846 10846 10847 10847 10847 10849 10849 10850 10852 10852 10853 10856 10858 10859 10861 10863 10866 10869 10871 10874 10876 10878 10880 10881 10882
10821 10822 10824 10825 10827 10828 10830 10832 10832 10834 10835 10836 10836 10836 10838 10841 10842 10843 10842 10843 10842 10843 10843 10844 10846 10847 10848 10849 10850 10852 10854 10855 10858 10860 10862 10865 10868 10870 10872 10874 10875 10876 10878
10815 10816 10818 10820 10821 10822 10825 10826 10828 10828 10829 10829 10830 10831 10833 10835 10836 10837 10838 10838 10838 10838 10839 10840 10841 10842 10843 10844 10845 10847 10849 10851 10853 10855 10859 10861 10864 10866 10866 10869 10869 10871 10874
10807 10809 10813 10815 10815 10816 10818 10821 10823 10824 10824 10824 10825 10827 10828 10830 10831 10832 10833 10834 10833 10833 10834 10834 10835 10837 10838 10839 10840 10842 10844 10846 10848 10851 10854 10856 10858 10860 10863 10864 10865 10867 10869
10802 10807 10809 10812 10813 10814 10816 10817 10819 10821 10821 10821 10822 10823 10823 10823 10824 10827 10829 10829 10829 10830 10829 10829 10829 10831 10832 10834 10835 10837 10838 10841 10843 10845 10847 10849 10851 10854 10857 10858 10860 10862 10864
10801 10801 10804 10806 10808 10810 10813 10814 10815 10816 10816 10816 10817 10818 10819 10819 10820 10821 10823 10825 10825 10825 10825 10825 10825 10825 10826 10828 10829 10831 10833 10834 10836 10838 10840 10842 10844 10847 10850 10852 10854 10856 10858
10795 10797 10799 10802 10804 10806 10807 10808 10810 10810 10811 10811 10811 10812 10812 10813 10814 10815 10816 10818 10819 10820 10821 10821 10821 10821 10821 10821 10822 10823 10825 10828 10830 10831 10833 10835 10838 10840 10841 10844 10846 10848 10851
10791 10792 10794 10795 10798 10799 10798 10799 10801 10802 10802 10802 10803 10803 10804 10805 10805 10806 10807 10809 10810 10812 10814 10815 10815 10816 10817 10817 10818 10817 10818 10820 10822 10824 10825 10827 10830 10831 10835 10836 10839 10841 10843
10784 10786 10786 10788 10790 10789 10792 10793 10791 10792 10793 10793 10793 10794 10794 10794 10795 10796 10798 10799 10800 10801 10803 10806 10808 10809 10810 10812 10812 10813 10814 10813 10814 10815 10817 10819 10821 10824 10827 10828 10831 10833 10835
10780 10781 10781 10782 10782 10782 10783 10782 10782 10782 10783 10783 10783 10785 10784 10785 10786 10786 10787 10790 10790 10792 10794 10795 10797 10798 10801 10803 10805 10806 10807 10808 10808 10808 10809 10811 10812 10814 10817 10819 10822 10825 10827
10775 10775 10776 10775 10774 10775 10775 10774 10773 10773 10773 10773 10771 10773 10772 10774 10773 10775 10776 10778 10779 10781 10783 10785 10787 10788 10790 10792 10793 10796 10799 10800 10802 10802 10802 10803 10804 10806 10807 10809 10812 10815 10818
10767 10767 10767 10767 10766 10766 10765 10763 10762 10764 10765 10763 10759 10760 10759 10760 10760 10762 10763 10765 10766 10767 10770 10772 10774 10777 10780 10780 10781 10783 10785 10788 10791 10793 10794 10795 10796 10797 10798 10800 10802 10806 10808
10758 10757 10757 10757 10757 10755 10754 10753 10753 10753 10754 10751 10747 10747 10747 10746 10744 10745 10746 10749 10752 10753 10754 10755 10758 10760 10764 10767 10768 10770 10772 10775 10777 10779 10781 10784 10785 10788 10790 10791 10792 10794 10796
10748 10747 10745 10744 10743 10741 10739 10739 10739 10739 10739 10736 10732 10732 10733 10733 10732 10731 10732 10733 10735 10735 10736 10738 10740 10744 10747 10751 10753 10756 10758 10761 10763 10765 10766 10770 10771 10775 10777 10779 10781 10783 10785
10740 10738 10735 10734 10732 10730 10727 10725 10724 10724 10721 10719 10717 10715 10715 10716 10715 10715 10715 10716 10715 10717 10720 10722 10725 10729 10730 10733 10737 10739 10743 10745 10748 10750 10751 10755 10756 10760 10762 10766 10768 10770 10773
10733 10731 10729 10726 10722 10719 10715 10712 10711 10708 10706 10704 10701 10698 10695 10695 10695 10695 10696 10697 10696 10695 10698 10702 10705 10707 10710 10713 10716 10722 10726 10728 10730 10734 10735 10737 10741 10744 10746 10750 10754 10757 10760
10725 10722 10719 10715 10711 10708 10704 10700 10697 10694 10690 10689 10687 10681 10679 10677 10676 10674 10675 10676 10676 10675 10676 10679 10683 10685 10688 10691 10695 10701 10706 10710 10712 10713 10716 10718 10722 10726 10730 10733 10737 10741 10746
10715 10711 10707 10702 10698 10693 10689 10685 10681 10678 10674 10671 10669 10666 10662 10659 10656 10655 10653 10654 10655 10654 10655 10657 10659 10662 10665 10669 10673 10678 10684 10688 10691 10694 10697 10698 10702 10706 10711 10716 10719 10724 10729
10705 10701 10695 10690 10685 10679 10674 10669 10663 10659 10655 10651 10648 10645 10642 10639 10636 10634 10633 10633 10633 10631 10632 10633 10635 10640 10641 10645 10650 10655 10659 10662 10667 10672 10675 10678 10682 10686 10690 10696 10700 10705 10710
10692 10687 10682 10676 10670 10663 10657 10651 10645 10641 10636 10632 10628 10624 10621 10618 10615 10612 10610 10609 10609 10609 10608 10611 10613 10614 10617 10619 10626 10630 10636 10642 10644 10648 10652 10657 10661 10664 10669 10675 10680 10684 10689
10676 10671 10664 10658 10651 10645 10638 10631 10626 10619 10614 10611 10606 10602 10599 10596 10592 10589 10586 10585 10584 10584 10585 10585 10588 10591 10593 10595 10600 10603 10610 10615 10620 10625 10628 10634 10640 10643 10648 10655 10662 10665 10670
10659 10652 10645 10638 10631 10623 10616 10609 10602 10595 10590 10586 10581 10577 10575 10571 10569 10567 10563 10560 10560 10560 10559 10560 10562 10565 10567 10569 10576 10580 10584 10588 10594 10600 10606 10611 10618 10623 10630 10633 10640 10647 10651
10641 10634 10626 10617 10608 10598 10589 10583 10576 10571 10565 10559 10555 10550 10546 10544 10541 10539 10537 10535 10534 10535 10534 10533 10534 10539 10543 10543 10547 10553 10559 10565 10569 10573 10580 10586 10593 10600 10607 10611 10618 10625 10631
10621 10611 10602 10591 10578 10569 10561 10554 10548 10541 10536 10531 10528 10522 10517 10514 10511 10508 10506 10505 10505 10504 10507 10506 10507 10511 10517 10520 10518 10524 10533 10539 10543 10549 10556 10561 10568 10575 10581 10588 10594 10602 10610
10599 10587 10574 10559 10543 10535 10529 10522 10516 10510 10506 10501 10493 10490 10486 10481 10477 10475 10474 10473 10473 10473 10473 10476 10477 10481 10486 10493 10495 10495 10503 10511 10519 10524 10530 10538 10542 10550 10556 10564 10572 10579 10586
10574 10561 10547 10531 10515 10503 10493 10487 10482 10477 10472 10467 10462 10458 10453 10448 10442 10437 10437 10438 10439 10440 10441 10442 10445 10449 10453 10459 10465 10468 10473 10478 10487 10495 10506 10509 10517 10526 10530 10539 10549 10557 10562